Pittsfield, MA

1:19 PM EST on December 15, 2019 (GMT -0500)
Pittsfield Municipal

Weather History for KPSF - August, 2019

Change the Weather History Date:

Monday, August 5, 2019

  Actual Average Record
Temperature  
Mean Temperature 65 °F 68 °F  
Max Temperature 79 °F 79 °F 94 °F (1955)
Min Temperature 51 °F 57 °F 45 °F (1951)
Degree Days  
Heating Degree Days 0 1  
Month to date heating degree days 0 5  
Since 1 June heating degree days 67 137  
Since 1 July heating degree days 0 36  
Cooling Degree Days 0 4  
Month to date cooling degree days 17 20  
Year to date cooling degree days 293 197  
Since 1 June cooling degree days 287 184  
Growing Degree Days 15 (Base 50)    
Moisture  
Dew Point 52 °F    
Average Humidity 66    
Maximum Humidity 96    
Minimum Humidity 35    
Precipitation  
Precipitation 0.00 in 0.15 in 1.32 in (1959)
Month to date precipitation 0.03 0.75  
Year to date precipitation 26.17 26.44  
Sea Level Pressure  
Sea Level Pressure 29.96 in    
Wind  
Wind Speed 2 mph (WNW)    
Max Wind Speed 10 mph    
Max Gust Speed 13 mph    
Visibility 9 miles    
Events      
T = Trace of Precipitation, MM = Missing Value Source: NWS Daily Summary

Daily Weather History Graph

Daily Weather History Graph

Search for Another Location

Airport or City:

Astronomy

Aug. 05, 2019 Rise Set
Actual Time 5:49 AM EDT 8:08 PM EDT
Civil Twilight 5:17 AM EDT 8:39 PM EDT
Nautical Twilight 4:39 AM EDT 9:18 PM EDT
Astronomical Twilight 3:55 AM EDT 10:01 PM EDT
Moon 11:08 AM EDT (8/5) 11:12 PM EDT (8/5)
Length of Visible Light 15h 21m
Length of Day
14h 18m
Waxing Crescent, 28% of the Moon is Illuminated
Aug 5
Waxing Crescent
Aug 7
First Quarter
Aug 15
Full
Aug 23
Last Quarter
Aug 30
New

Hourly Weather History & Observations

Time (EDT) Temp. Dew Point Humidity Pressure Visibility Wind Dir Wind Speed Gust Speed Precip Events Conditions
12:54 AM 59.0 °F 54.0 °F 83% 29.92 in 10.0 mi Calm Calm - N/A   Clear
1:54 AM 57.0 °F 54.0 °F 89% 29.93 in 10.0 mi Calm Calm - N/A   Clear
2:54 AM 55.0 °F 52.0 °F 89% 29.93 in 10.0 mi Calm Calm - N/A   Clear
3:54 AM 55.9 °F 52.0 °F 87% 29.95 in 10.0 mi Calm Calm - N/A   Clear
4:54 AM 52.0 °F 50.0 °F 93% 29.95 in 7.0 mi Calm Calm - N/A   Clear
5:40 AM 51.1 °F 48.9 °F 92% 30.02 in 10.0 mi Calm Calm - N/A   Partly Cloudy
5:54 AM 52.0 °F 48.9 °F 89% 29.97 in 10.0 mi Calm Calm - N/A   Partly Cloudy
6:24 AM 51.1 °F 48.9 °F 92% 30.03 in 1.8 mi Calm Calm - N/A   Clear
6:35 AM 52.0 °F 50.0 °F 93% 30.03 in 3.0 mi Calm Calm - N/A   Clear
6:54 AM 53.1 °F 51.1 °F 93% 29.98 in 9.0 mi Calm Calm - N/A   Clear
7:15 AM 55.9 °F 52.0 °F 87% 30.04 in 10.0 mi Calm Calm - N/A   Scattered Clouds
7:24 AM 55.9 °F 53.1 °F 90% 30.04 in 2.0 mi Calm Calm - N/A   Mostly Cloudy
7:28 AM 55.9 °F 54.0 °F 93% 30.04 in 1.2 mi North - - N/A   Mist
7:54 AM 59.0 °F 54.0 °F 83% 29.98 in 10.0 mi Calm Calm - N/A   Unknown
8:54 AM 64.9 °F 54.0 °F 68% 29.99 in 10.0 mi Calm Calm - N/A   Clear
9:54 AM 70.0 °F 51.1 °F 51% 29.99 in 10.0 mi Calm Calm - N/A   Clear
10:54 AM 72.0 °F 50.0 °F 46% 29.98 in 10.0 mi Variable 4.6 mph - N/A   Clear
11:54 AM 73.9 °F 50.0 °F 43% 29.96 in 10.0 mi Calm Calm - N/A   Clear
12:54 PM 78.1 °F 51.1 °F 39% 29.94 in 10.0 mi WNW 6.9 mph - N/A   Clear
1:54 PM 77.0 °F 48.0 °F 36% 29.94 in 10.0 mi Variable 3.5 mph - N/A   Clear
2:54 PM 79.0 °F 48.9 °F 35% 29.93 in 10.0 mi WNW 8.1 mph - N/A   Clear
3:54 PM 78.1 °F 50.0 °F 37% 29.91 in 10.0 mi WNW 5.8 mph - N/A   Clear
4:54 PM 78.1 °F 50.0 °F 37% 29.92 in 10.0 mi NW 6.9 mph - N/A   Clear
5:54 PM 78.1 °F 48.9 °F 36% 29.91 in 10.0 mi WNW 3.5 mph - N/A   Clear
6:54 PM 75.9 °F 52.0 °F 43% 29.90 in 10.0 mi NW 3.5 mph - N/A   Clear
7:54 PM 69.1 °F 57.0 °F 65% 29.91 in 10.0 mi Calm Calm - N/A   Clear
8:54 PM 64.0 °F 55.0 °F 73% 29.91 in 10.0 mi Calm Calm - N/A   Clear
9:54 PM 61.0 °F 53.1 °F 75% 29.92 in 10.0 mi Calm Calm - N/A   Clear
10:54 PM 57.9 °F 53.1 °F 84% 29.91 in 10.0 mi Calm Calm - N/A   Clear
11:54 PM 55.9 °F 52.0 °F 87% 29.92 in 10.0 mi Calm Calm - N/A   Clear